Time,TemperatureF,DewpointF,PressureIn,WindDirection,WindDirectionDegrees,WindSpeedMPH,WindSpeedGustMPH,Humidity,HourlyPrecipIn,Conditions,Clouds,dailyrainin,SoftwareType,DateUTC
2013-04-21 00:09:00,45.9,37.0,30.11,East,90,3.2,-999.0,71,-99.99,,,0.00,Acu-Link.com,2013-04-21 05:09:00,
2013-04-21 00:25:00,45.7,37.2,30.12,NW,315,1.1,-999.0,72,-99.99,,,0.00,Acu-Link.com,2013-04-21 05:25:00,
2013-04-21 00:40:00,45.7,37.5,30.11,ESE,112,5.8,-999.0,73,-99.99,,,0.00,Acu-Link.com,2013-04-21 05:40:00,
2013-04-21 00:55:00,45.3,37.9,30.10,ESE,112,4.2,-999.0,75,-99.99,,,0.00,Acu-Link.com,2013-04-21 05:55:00,
2013-04-21 01:10:00,45.3,37.9,30.09,ESE,112,5.3,-999.0,75,-99.99,,,0.00,Acu-Link.com,2013-04-21 06:10:00,
2013-04-21 01:25:00,45.7,37.9,30.09,ESE,112,6.8,-999.0,74,-99.99,,,0.00,Acu-Link.com,2013-04-21 06:25:00,
2013-04-21 01:41:00,45.7,37.9,30.09,SE,135,9.9,-999.0,74,-99.99,,,0.00,Acu-Link.com,2013-04-21 06:41:00,
2013-04-21 01:56:00,45.5,38.4,30.09,ESE,112,3.2,-999.0,76,-99.99,,,0.00,Acu-Link.com,2013-04-21 06:56:00,
2013-04-21 02:11:00,45.3,38.5,30.09,ESE,112,6.3,-999.0,77,-99.99,,,0.00,Acu-Link.com,2013-04-21 07:11:00,
2013-04-21 02:26:00,45.1,38.7,30.08,SE,135,6.8,-999.0,78,-99.99,,,0.00,Acu-Link.com,2013-04-21 07:26:00,
2013-04-21 02:42:00,45.1,38.7,30.08,ESE,112,6.3,-999.0,78,-99.99,,,0.00,Acu-Link.com,2013-04-21 07:42:00,
2013-04-21 02:57:00,45.0,38.9,30.07,East,90,3.7,-999.0,79,-99.99,,,0.00,Acu-Link.com,2013-04-21 07:57:00,
2013-04-21 03:12:00,44.8,39.3,30.07,ESE,112,6.8,-999.0,81,-99.99,,,0.00,Acu-Link.com,2013-04-21 08:12:00,
2013-04-21 03:27:00,44.6,39.1,30.06,SE,135,9.4,-999.0,81,-99.99,,,0.00,Acu-Link.com,2013-04-21 08:27:00,
2013-04-21 03:42:00,44.6,39.8,30.06,SE,135,8.9,-999.0,83,-99.99,,,0.00,Acu-Link.com,2013-04-21 08:42:00,
2013-04-21 03:58:00,44.4,39.9,30.06,ENE,67,8.9,-999.0,84,-99.99,,,0.00,Acu-Link.com,2013-04-21 08:58:00,
2013-04-21 04:13:00,44.6,40.1,30.06,SSE,157,9.9,-999.0,84,-99.99,,,0.00,Acu-Link.com,2013-04-21 09:13:00,
2013-04-21 04:28:00,44.8,40.3,30.05,SSE,157,5.3,-999.0,84,-99.99,,,0.00,Acu-Link.com,2013-04-21 09:28:00,
2013-04-21 04:43:00,44.8,40.6,30.07,SSE,157,8.3,-999.0,85,-99.99,,,0.00,Acu-Link.com,2013-04-21 09:43:00,
2013-04-21 04:58:00,44.6,40.7,30.06,South,180,7.3,-999.0,86,-99.99,,,0.00,Acu-Link.com,2013-04-21 09:58:00,
2013-04-21 05:14:00,44.2,41.2,30.07,South,180,6.3,-999.0,89,-99.99,,,0.00,Acu-Link.com,2013-04-21 10:14:00,
2013-04-21 05:29:00,44.2,40.9,30.06,SE,135,7.3,-999.0,88,-99.99,,,0.00,Acu-Link.com,2013-04-21 10:29:00,
2013-04-21 05:44:00,44.4,41.1,30.06,South,180,5.8,-999.0,88,-99.99,,,0.00,Acu-Link.com,2013-04-21 10:44:00,
2013-04-21 05:59:00,45.0,41.4,30.06,SSE,157,8.3,-999.0,87,-99.99,,,0.00,Acu-Link.com,2013-04-21 10:59:00,
2013-04-21 06:14:00,44.8,41.2,30.07,SSE,157,5.3,-999.0,87,-99.99,,,0.00,Acu-Link.com,2013-04-21 11:14:00,
2013-04-21 06:30:00,45.0,41.4,30.07,SE,135,8.3,-999.0,87,-99.99,,,0.00,Acu-Link.com,2013-04-21 11:30:00,
2013-04-21 06:45:00,44.8,41.5,30.07,SE,135,6.8,-999.0,88,-99.99,,,0.00,Acu-Link.com,2013-04-21 11:45:00,
2013-04-21 07:00:00,45.0,41.7,30.08,SSE,157,7.3,-999.0,88,-99.99,,,0.00,Acu-Link.com,2013-04-21 12:00:00,
2013-04-21 07:16:00,45.1,42.1,30.08,SSE,157,6.3,-999.0,89,-99.99,,,0.00,Acu-Link.com,2013-04-21 12:16:00,
2013-04-21 07:31:00,45.5,42.7,30.08,SSE,157,7.3,-999.0,90,-99.99,,,0.00,Acu-Link.com,2013-04-21 12:31:00,
2013-04-21 07:46:00,46.8,43.7,30.08,SE,135,7.8,-999.0,89,-99.99,,,0.00,Acu-Link.com,2013-04-21 12:46:00,
2013-04-21 08:01:00,47.8,44.1,30.07,South,180,8.9,-999.0,87,-99.99,,,0.00,Acu-Link.com,2013-04-21 13:01:00,
2013-04-21 08:17:00,50.2,46.2,30.06,South,180,7.3,-999.0,86,-99.99,,,0.00,Acu-Link.com,2013-04-21 13:17:00,
2013-04-21 08:32:00,51.4,47.0,30.06,SE,135,8.3,-999.0,85,-99.99,,,0.00,Acu-Link.com,2013-04-21 13:32:00,
2013-04-21 08:47:00,50.9,46.9,30.04,South,180,10.9,-999.0,86,-99.99,,,0.00,Acu-Link.com,2013-04-21 13:47:00,
2013-04-21 09:02:00,51.6,47.9,30.05,SSE,157,9.4,-999.0,87,-99.99,,,0.00,Acu-Link.com,2013-04-21 14:02:00,
2013-04-21 09:18:00,53.4,49.0,30.04,SSE,157,10.9,-999.0,85,-99.99,,,0.00,Acu-Link.com,2013-04-21 14:18:00,
2013-04-21 09:33:00,55.9,50.5,29.98,South,180,11.4,-999.0,82,-99.99,,,0.00,Acu-Link.com,2013-04-21 14:33:00,
2013-04-21 09:48:00,57.7,51.2,29.94,SSW,202,13.5,-999.0,79,-99.99,,,0.00,Acu-Link.com,2013-04-21 14:48:00,
2013-04-21 10:03:00,60.8,53.2,29.94,SSE,157,14.0,-999.0,76,-99.99,,,0.00,Acu-Link.com,2013-04-21 15:03:00,
2013-04-21 10:19:00,61.5,52.0,29.94,SSW,202,13.5,-999.0,71,-99.99,,,0.00,Acu-Link.com,2013-04-21 15:19:00,
2013-04-21 10:34:00,63.0,52.7,29.97,SSE,157,14.5,-999.0,69,-99.99,,,0.00,Acu-Link.com,2013-04-21 15:34:00,
2013-04-21 10:49:00,63.0,52.7,30.02,SSW,202,14.0,-999.0,69,-99.99,,,0.00,Acu-Link.com,2013-04-21 15:49:00,
2013-04-21 11:05:00,64.8,54.0,30.02,South,180,9.9,-999.0,68,-99.99,,,0.00,Acu-Link.com,2013-04-21 16:05:00,
2013-04-21 11:20:00,65.8,52.4,30.02,SW,225,10.4,-999.0,62,-99.99,,,0.00,Acu-Link.com,2013-04-21 16:20:00,
2013-04-21 11:35:00,66.0,52.6,30.03,SSE,157,17.6,-999.0,62,-99.99,,,0.00,Acu-Link.com,2013-04-21 16:35:00,
2013-04-21 11:50:00,65.8,52.4,30.02,South,180,20.7,-999.0,62,-99.99,,,0.00,Acu-Link.com,2013-04-21 16:50:00,
2013-04-21 12:05:00,66.7,51.4,30.02,SSW,202,13.0,-999.0,58,-99.99,,,0.00,Acu-Link.com,2013-04-21 17:05:00,
2013-04-21 12:21:00,66.2,50.5,30.01,South,180,21.2,-999.0,57,-99.99,,,0.00,Acu-Link.com,2013-04-21 17:21:00,
2013-04-21 12:36:00,67.3,51.5,30.01,South,180,7.8,-999.0,57,-99.99,,,0.00,Acu-Link.com,2013-04-21 17:36:00,
2013-04-21 12:51:00,68.0,51.2,30.00,SSW,202,17.1,-999.0,55,-99.99,,,0.00,Acu-Link.com,2013-04-21 17:51:00,
2013-04-21 13:07:00,67.1,51.4,30.00,South,180,12.5,-999.0,57,-99.99,,,0.00,Acu-Link.com,2013-04-21 18:07:00,
2013-04-21 13:22:00,68.4,53.5,30.00,South,180,14.0,-999.0,59,-99.99,,,0.00,Acu-Link.com,2013-04-21 18:22:00,
2013-04-21 13:37:00,66.4,51.2,29.98,SW,225,12.5,-999.0,58,-99.99,,,0.00,Acu-Link.com,2013-04-21 18:37:00,
2013-04-21 13:52:00,69.6,52.7,29.98,SSW,202,18.6,-999.0,55,-99.99,,,0.00,Acu-Link.com,2013-04-21 18:52:00,
2013-04-21 14:07:00,69.1,52.7,29.97,WSW,247,11.4,-999.0,56,-99.99,,,0.00,Acu-Link.com,2013-04-21 19:07:00,
2013-04-21 14:23:00,69.4,52.0,29.97,South,180,15.5,-999.0,54,-99.99,,,0.00,Acu-Link.com,2013-04-21 19:23:00,
2013-04-21 14:38:00,66.4,52.5,29.97,South,180,12.5,-999.0,61,-99.99,,,0.00,Acu-Link.com,2013-04-21 19:38:00,
2013-04-21 14:53:00,66.2,52.8,29.97,South,180,15.5,-999.0,62,-99.99,,,0.00,Acu-Link.com,2013-04-21 19:53:00,
2013-04-21 15:08:00,67.1,51.8,29.96,SW,225,8.9,-999.0,58,-99.99,,,0.00,Acu-Link.com,2013-04-21 20:08:00,
2013-04-21 15:23:00,68.5,52.7,29.95,SSW,202,11.4,-999.0,57,-99.99,,,0.00,Acu-Link.com,2013-04-21 20:23:00,
2013-04-21 15:39:00,68.7,53.3,29.94,SSE,157,15.5,-999.0,58,-99.99,,,0.00,Acu-Link.com,2013-04-21 20:39:00,
2013-04-21 15:54:00,67.5,52.2,29.94,SSE,157,13.5,-999.0,58,-99.99,,,0.00,Acu-Link.com,2013-04-21 20:54:00,
2013-04-21 16:09:00,67.8,53.4,29.94,South,180,15.5,-999.0,60,-99.99,,,0.00,Acu-Link.com,2013-04-21 21:09:00,
2013-04-21 16:24:00,67.1,52.7,29.94,South,180,8.3,-999.0,60,-99.99,,,0.00,Acu-Link.com,2013-04-21 21:24:00,
2013-04-21 16:40:00,66.2,51.9,29.95,South,180,16.1,-999.0,60,-99.99,,,0.00,Acu-Link.com,2013-04-21 21:40:00,
2013-04-21 16:55:00,66.6,52.3,29.94,SSW,202,11.4,-999.0,60,-99.99,,,0.00,Acu-Link.com,2013-04-21 21:55:00,
2013-04-21 17:10:00,65.7,52.8,29.94,South,180,13.5,-999.0,63,-99.99,,,0.00,Acu-Link.com,2013-04-21 22:10:00,
2013-04-21 17:25:00,65.7,53.2,29.94,South,180,18.1,-999.0,64,-99.99,,,0.00,Acu-Link.com,2013-04-21 22:25:00,
2013-04-21 17:40:00,66.2,54.1,29.94,South,180,10.9,-999.0,65,-99.99,,,0.00,Acu-Link.com,2013-04-21 22:40:00,
2013-04-21 17:56:00,66.2,53.7,29.94,South,180,11.4,-999.0,64,-99.99,,,0.00,Acu-Link.com,2013-04-21 22:56:00,
2013-04-21 18:11:00,65.3,53.2,29.94,SSE,157,13.5,-999.0,65,-99.99,,,0.00,Acu-Link.com,2013-04-21 23:11:00,
2013-04-21 18:26:00,64.8,53.6,29.94,SSE,157,10.4,-999.0,67,-99.99,,,0.00,Acu-Link.com,2013-04-21 23:26:00,
2013-04-21 18:41:00,64.9,53.7,29.95,South,180,16.1,-999.0,67,-99.99,,,0.00,Acu-Link.com,2013-04-21 23:41:00,
2013-04-21 18:56:00,64.9,54.1,29.94,South,180,10.9,-999.0,68,-99.99,,,0.00,Acu-Link.com,2013-04-21 23:56:00,
2013-04-21 19:12:00,64.6,53.8,29.94,South,180,11.4,-999.0,68,-99.99,,,0.00,Acu-Link.com,2013-04-22 00:12:00,
2013-04-21 19:27:00,63.3,53.0,29.94,South,180,7.3,-999.0,69,-99.99,,,0.00,Acu-Link.com,2013-04-22 00:27:00,
2013-04-21 19:42:00,62.6,53.4,29.95,SSE,157,9.4,-999.0,72,-99.99,,,0.00,Acu-Link.com,2013-04-22 00:42:00,
2013-04-21 19:57:00,61.3,52.9,29.95,SSE,157,11.9,-999.0,74,-99.99,,,0.00,Acu-Link.com,2013-04-22 00:57:00,
2013-04-21 20:13:00,60.3,52.7,29.96,SSE,157,10.4,-999.0,76,-99.99,,,0.00,Acu-Link.com,2013-04-22 01:13:00,
2013-04-21 20:28:00,59.9,52.7,29.96,SSE,157,8.3,-999.0,77,-99.99,,,0.00,Acu-Link.com,2013-04-22 01:28:00,
2013-04-21 20:43:00,59.5,52.6,29.97,South,180,7.3,-999.0,78,-99.99,,,0.00,Acu-Link.com,2013-04-22 01:43:00,
2013-04-21 20:58:00,59.0,52.5,29.97,South,180,9.4,-999.0,79,-99.99,,,0.00,Acu-Link.com,2013-04-22 01:58:00,
2013-04-21 21:13:00,58.6,52.1,29.98,South,180,10.4,-999.0,79,-99.99,,,0.00,Acu-Link.com,2013-04-22 02:13:00,
2013-04-21 21:29:00,58.3,52.2,30.00,South,180,10.4,-999.0,80,-99.99,,,0.00,Acu-Link.com,2013-04-22 02:29:00,
2013-04-21 21:44:00,57.6,52.5,30.00,South,180,8.9,-999.0,83,-99.99,,,0.00,Acu-Link.com,2013-04-22 02:44:00,
2013-04-21 21:59:00,57.2,52.4,30.01,South,180,10.9,-999.0,84,-99.99,,,0.00,Acu-Link.com,2013-04-22 02:59:00,
2013-04-21 22:14:00,56.5,52.4,30.01,South,180,7.8,-999.0,86,-99.99,,,0.00,Acu-Link.com,2013-04-22 03:14:00,
2013-04-21 22:29:00,56.1,52.6,30.02,SSE,157,9.4,-999.0,88,-99.99,,,0.00,Acu-Link.com,2013-04-22 03:29:00,
2013-04-21 22:45:00,55.8,53.2,30.05,NNW,337,5.8,-999.0,91,-99.99,,,0.00,Acu-Link.com,2013-04-22 03:45:00,
2013-04-21 23:00:00,55.9,55.3,30.04,SSE,157,4.7,-999.0,98,-99.99,,,0.00,Acu-Link.com,2013-04-22 04:00:00,
2013-04-21 23:15:00,56.3,54.9,30.06,NNW,337,4.7,-999.0,95,-99.99,,,0.00,Acu-Link.com,2013-04-22 04:15:00,
2013-04-21 23:30:00,55.6,55.0,30.08,NW,315,6.8,-999.0,98,-99.99,,,0.00,Acu-Link.com,2013-04-22 04:30:00,
2013-04-21 23:46:00,54.1,53.5,30.06,North,0,4.7,-999.0,98,-99.99,,,0.00,Acu-Link.com,2013-04-22 04:46:00,